FW4407 Weather Reports


time (UTC)temp
C
wind
direction
speed
KPH
gust
KPH
rain 1hr
cm
rain 24hr
cm
rain mn
cm
humidity
%
barometer
mb
20260906093027 35 308 0.0 3.2 0.00 0.00 0.00 28 1018.7
20260906092019 35 36 0.0 3.2 0.00 0.00 0.00 28 1018.7
20260906091027 35 253 0.0 3.2 0.00 0.00 0.00 29 1018.6
20260906090019 35 4 1.6 12.9 0.00 0.00 0.00 29 1018.8
20260906085027 34 0.0 0.0 0.00 0.00 0.00 27 1018.8
20260906084019 33 229 1.6 8.0 0.00 0.00 0.00 29 1018.8
20260906083027 33 0.0 0.0 0.00 0.00 0.00 29 1018.8
20260906082039 33 128 0.0 3.2 0.00 0.00 0.00 30 1018.7
20260906081027 33 0.0 0.0 0.00 0.00 0.00 30 1018.9
20260906080039 33 250 0.0 3.2 0.00 0.00 0.00 29 1019.0
20260906075047 33 270 0.0 3.2 0.00 0.00 0.00 29 1018.8
20260906074019 33 0.0 0.0 0.00 0.00 0.00 30 1018.9
20260906073027 33 222 0.0 8.0 0.00 0.00 0.00 30 1018.7
20260906072019 32 259 0.0 3.2 0.00 0.00 0.00 29 1018.8
20260906071027 31 0.0 0.0 0.00 0.00 0.00 32 1018.6
20260906070019 31 0.0 0.0 0.00 0.00 0.00 32 1018.4
20260906065027 30 0.0 0.0 0.00 0.00 0.00 33 1018.3
20260906064019 28 0.0 0.0 0.00 0.00 0.00 35 1018.4
20260906063027 28 0.0 0.0 0.00 0.00 0.00 36 1018.2
20260906062039 27 0.0 0.0 0.00 0.00 0.00 37 1018.0
20260906061047 27 0.0 0.0 0.00 0.00 0.00 38 1018.0
20260906060019 27 0.0 0.0 0.00 0.00 0.00 40 1018.0
20260906055047 27 0.0 0.0 0.00 0.00 0.00 41 1018.0
20260906054018 26 0.0 0.0 0.00 0.00 0.00 41 1017.8
20260906053027 25 0.0 0.0 0.00 0.00 0.00 42 1017.7
20260906052018 25 0.0 0.0 0.00 0.00 0.00 44 1017.9
20260906051046 24 0.0 0.0 0.00 0.00 0.00 46 1017.7
20260906050019 23 0.0 0.0 0.00 0.00 0.00 46 1017.9
20260906045026 22 0.0 0.0 0.00 0.00 0.00 46 1017.7
20260906044019 21 0.0 0.0 0.00 0.00 0.00 48 1017.5
20260906043027 21 129 1.6 8.0 0.00 0.00 0.00 50 1017.4
20260906042019 22 0.0 0.0 0.00 0.00 0.00 50 1017.4
20260906041027 22 7 1.6 8.0 0.00 0.00 0.00 49 1017.2
20260906040019 22 42 0.0 3.2 0.00 0.00 0.00 48 1017.3
20260906035026 23 0.0 0.0 0.00 0.00 0.00 46 1017.3
20260906034059 23 0.0 0.0 0.00 0.00 0.00 46 1017.3
20260906033026 23 0.0 0.0 0.00 0.00 0.00 45 1017.3
20260906032039 22 0.0 0.0 0.00 0.00 0.00 45 1017.2
20260906031049 22 133 1.6 8.0 0.00 0.00 0.00 46 1017.1
20260906030018 22 144 0.0 8.0 0.00 0.00 0.00 47 1017.1
20260906025027 22 21 1.6 8.0 0.00 0.00 0.00 47 1016.9
20260906024018 22 0.0 0.0 0.00 0.00 0.00 48 1016.9
20260906023027 22 0.0 0.0 0.00 0.00 0.00 47 1016.6
20260906022019 22 0.0 0.0 0.00 0.00 0.00 47 1016.8
20260906021027 22 0.0 0.0 0.00 0.00 0.00 47 1016.9
20260906020019 22 0.0 0.0 0.00 0.00 0.00 48 1016.7
20260906015026 22 0.0 0.0 0.00 0.00 0.00 47 1016.8
20260906014018 22 0.0 0.0 0.00 0.00 0.00 47 1016.9
20260906013026 22 0.0 0.0 0.00 0.00 0.00 46 1016.9
20260906012018 22 0.0 0.0 0.00 0.00 0.00 47 1017.1
20260906011026 22 0.0 0.0 0.00 0.00 0.00 48 1017.2
20260906010039 23 0.0 0.0 0.00 0.00 0.00 47 1017.0
20260906005026 23 0.0 0.0 0.00 0.00 0.00 46 1017.0
20260906004019 23 0.0 0.0 0.00 0.00 0.00 45 1017.0
20260906003046 23 0.0 0.0 0.00 0.00 0.00 44 1017.0
20260906002019 23 0.0 0.0 0.00 0.00 0.00 44 1017.0
20260906001026 24 0.0 0.0 0.00 0.00 0.00 43 1017.0
20260906000018 24 0.0 0.0 0.00 0.00 0.00 43 1017.1
20260905235026 24 0.0 0.0 0.00 0.00 0.00 41 1017.2
20260905234019 23 0.0 0.0 0.00 0.00 0.00 42 1017.3
20260905233027 23 0.0 0.0 0.00 0.00 0.00 43 1017.3
20260905232018 24 0.0 0.0 0.00 0.00 0.00 44 1017.3
20260905231026 23 0.0 0.0 0.00 0.00 0.00 43 1017.4
20260905230018 24 0.0 0.0 0.00 0.00 0.00 43 1017.6
20260905225026 24 0.0 0.0 0.00 0.00 0.00 43 1017.7
20260905224018 24 0.0 0.0 0.00 0.00 0.00 44 1017.7
20260905223026 24 0.0 0.0 0.00 0.00 0.00 41 1017.7
20260905222019 24 0.0 0.0 0.00 0.00 0.00 41 1017.7
20260905221027 24 0.0 0.0 0.00 0.00 0.00 42 1017.7
20260905220019 25 0.0 0.0 0.00 0.00 0.00 42 1017.6
20260905215027 25 341 0.0 3.2 0.00 0.00 0.00 41 1017.7
20260905214019 25 0.0 0.0 0.00 0.00 0.00 39 1017.7
20260905213027 25 0.0 0.0 0.00 0.00 0.00 38 1017.6
20260905212019 25 0.0 0.0 0.00 0.00 0.00 39 1017.7
20260905211027 25 128 0.0 3.2 0.00 0.00 0.00 39 1017.8
20260905210040 25 126 1.6 8.0 0.00 0.00 0.00 40 1017.8
20260905205027 25 125 0.0 8.0 0.00 0.00 0.00 40 1017.9
20260905204019 25 0.0 0.0 0.00 0.00 0.00 40 1017.7
20260905203027 25 0.0 0.0 0.00 0.00 0.00 40 1017.6
20260905202020 25 0.0 0.0 0.00 0.00 0.00 40 1017.6
20260905201027 26 0.0 0.0 0.00 0.00 0.00 40 1017.7
20260905200039 26 0.0 0.0 0.00 0.00 0.00 39 1017.7
20260905195027 26 0.0 0.0 0.00 0.00 0.00 38 1017.8
20260905194019 26 0.0 0.0 0.00 0.00 0.00 39 1017.8
20260905193027 26 0.0 0.0 0.00 0.00 0.00 39 1017.9
20260905192019 26 0.0 0.0 0.00 0.00 0.00 38 1017.6
20260905191027 26 136 0.0 8.0 0.00 0.00 0.00 38 1017.7
20260905190019 26 0.0 0.0 0.00 0.00 0.00 39 1018.0
20260905185027 26 0.0 0.0 0.00 0.00 0.00 40 1017.8
20260905184039 27 0.0 0.0 0.00 0.00 0.00 39 1017.7
20260905183027 27 0.0 0.0 0.00 0.00 0.00 39 1017.6
20260905182019 27 20 0.0 3.2 0.00 0.00 0.00 38 1017.6
20260905181027 27 124 3.2 12.9 0.00 0.00 0.00 37 1017.3
20260905180019 27 131 3.2 16.1 0.00 0.00 0.00 37 1017.3
20260905175027 27 140 3.2 16.1 0.00 0.00 0.00 38 1017.3
20260905174019 28 128 4.8 20.9 0.00 0.00 0.00 37 1017.3
20260905173047 28 121 8.0 20.9 0.00 0.00 0.00 37 1017.2
20260905172059 28 124 3.2 12.9 0.00 0.00 0.00 37 1016.9
20260905171027 28 113 4.8 12.9 0.00 0.00 0.00 36 1016.9
20260905170019 28 124 6.4 16.1 0.00 0.00 0.00 37 1017.1
20260905165027 29 121 4.8 16.1 0.00 0.00 0.00 37 1017.2
20260905164019 30 122 4.8 16.1 0.00 0.00 0.00 37 1017.2
20260905163047 30 126 6.4 16.1 0.00 0.00 0.00 36 1017.1
20260905162019 30 135 1.6 8.0 0.00 0.00 0.00 35 1017.0
20260905161027 30 98 6.4 16.1 0.00 0.00 0.00 33 1017.1
20260905160019 30 7 4.8 16.1 0.00 0.00 0.00 32 1017.0
20260905155027 31 15 14.5 27.4 0.00 0.00 0.00 32 1017.3
20260905154039 31 21 9.7 24.1 0.00 0.00 0.00 32 1017.2
20260905153027 31 18 8.0 24.1 0.00 0.00 0.00 31 1017.2
20260905152019 31 13 9.7 24.1 0.00 0.00 0.00 32 1017.2
20260905151027 31 22 8.0 24.1 0.00 0.00 0.00 31 1017.2
20260905150019 32 89 8.0 20.9 0.00 0.00 0.00 31 1017.3
20260905145027 32 44 6.4 20.9 0.00 0.00 0.00 31 1017.1
20260905144019 32 9 8.0 20.9 0.00 0.00 0.00 31 1017.3
20260905143027 32 326 4.8 16.1 0.00 0.00 0.00 30 1017.0
20260905142019 32 65 11.3 32.2 0.00 0.00 0.00 30 1017.0
20260905141027 32 107 9.7 24.1 0.00 0.00 0.00 32 1017.0
20260905140039 32 67 9.7 20.9 0.00 0.00 0.00 31 1017.0
20260905135027 32 7 6.4 16.1 0.00 0.00 0.00 32 1017.2
20260905134039 32 28 8.0 20.9 0.00 0.00 0.00 33 1017.1
20260905133027 32 19 9.7 27.4 0.00 0.00 0.00 33 1017.4
20260905132019 32 8 8.0 27.4 0.00 0.00 0.00 33 1017.3
20260905131047 32 125 6.4 24.1 0.00 0.00 0.00 32 1017.3
20260905130019 32 26 8.0 20.9 0.00 0.00 0.00 33 1017.4
20260905125027 32 101 8.0 24.1 0.00 0.00 0.00 32 1017.4
20260905124019 32 33 11.3 24.1 0.00 0.00 0.00 33 1017.4
20260905123027 32 7 6.4 20.9 0.00 0.00 0.00 33 1017.3
20260905122019 31 123 12.9 24.1 0.00 0.00 0.00 32 1017.4
20260905121027 31 53 8.0 32.2 0.00 0.00 0.00 32 1017.5
20260905120019 31 78 8.0 24.1 0.00 0.00 0.00 34 1017.5
20260905115027 31 115 12.9 37.0 0.00 0.00 0.00 34 1017.7
20260905114019 31 112 11.3 32.2 0.00 0.00 0.00 34 1017.7
20260905113027 31 112 8.0 24.1 0.00 0.00 0.00 34 1017.7
20260905112019 31 114 8.0 24.1 0.00 0.00 0.00 35 1017.8
20260905111027 31 108 8.0 20.9 0.00 0.00 0.00 35 1017.8
20260905110019 31 127 12.9 27.4 0.00 0.00 0.00 35 1017.7
20260905105027 31 107 8.0 16.1 0.00 0.00 0.00 34 1017.8
20260905104039 31 134 12.9 32.2 0.00 0.00 0.00 35 1017.8
20260905103027 31 116 9.7 24.1 0.00 0.00 0.00 35 1017.8
20260905102019 31 56 9.7 32.2 0.00 0.00 0.00 35 1017.8
20260905101047 31 127 11.3 48.3 0.00 0.00 0.00 34 1017.8
20260905100019 31 121 9.7 24.1 0.00 0.00 0.00 34 1017.8
20260905095027 30 52 11.3 32.2 0.00 0.00 0.00 34 1017.9
20260905094019 30 16 11.3 32.2 0.00 0.00 0.00 35 1017.9